Погода в Мосейцево

Россия / Ярославская область     57°06′37″N   39°44′24″E
темп.,
°C
ветер,
м/с
пор.,
м/с
влажн.,
%
обл.,
%
осадки,
мм/ч
давл.,
гПа
погр.,
м
22 мая, вс
вс2200:00+1св49815 0.0 1009178
03:00−1св35825 0.0 100986
06:00+1ссв46670 0.0 1008223
09:00+6ссв67495 0.0 10071336
12:00+8ссв564669 0.0 10061741
15:00+9с6749100 0.0 10051919
18:00+7ссв576190 0.1 10051509
21:00+3с3575100 0.1 100585
23 мая, пн
пн2300:00+1ссз348477 0.0 100561
03:00+1сз388263 0.0 1004172
06:00+3сз4975100 0.0 1003650
09:00+6сз71061100 0.0 10021415
12:00+9сз81053100 0.0 10011791
15:00+9ссз71152100 0.0 10011962
18:00+6ссз51156100 0.0 10021081
21:00+6ссз51063100 0.0 1002866
24 мая, вт
вт2400:00+4сз61073100 0.1 10011016
03:00+2сз51098100 1.1 1002496
06:00+1сз4798100 0.8 1003458
09:00+3ссз458386 1.2 1004852
12:00+5ссз4574100 0.4 10061099
15:00+6ссз4570100 0.9 10081159
18:00+6ссз3473100 0.4 1009974
21:00+2с22885 0.5 101122
25 мая, ср
ср2500:000ссз339568 0.0 101245
03:000сз339777 0.0 101359
06:00+3сз2489100 0.0 1013138
09:00+5сз347465 0.0 1013585
12:00+8сз457175 0.1 10131012
15:00+10ссз566798 0.9 10131406
18:00+10с357275 0.9 1013980
21:00+5с12875 1.2 101411
26 мая, чт
чт2600:00+3ссз119262 0.0 101510
03:00+3зюз229277 0.0 101513
06:00+5зюз128730 0.0 1015106
09:00+10ю22695 0.0 1013578
12:00+13ю335548 0.0 10111594
15:00+15ююв455150 0.0 10091758
18:00+14юв5864100 0.0 1007575
21:00+10юв4976100 0.0 1005191